Content
SEND FEEDBACK

Daily
Averages
Monthly
Summary
United States of America

PETERSBURG, INDIANA


Home > North America > United States > Indiana
Elevation: 427 feet     Latitude: 38 30N     Longitude: 087 18W

WEATHER
 
SELECT A DAY
Number of Records: 431,506;   Date Range: 1/1/95 - 7/26/14
 
SHARE

PRINT THIS DATA

[ ← Previous Day ]
WEATHER ALMANAC - JANUARY 23, 2013
[ Next Day → ]
[ °C ]   °F
Weather ElementAverageHighLow
Temperature18.2 °F37.4 °F (4:15 pm) (6:35 pm)
Dewpoint7.5 °F17.6 °F (4:55 pm) (7:00 pm)
Humidity56.9 %79 % (5:35 am)41 % (1:55 pm)
Wind Speed5.6 mph12.7 mph (3:55 pm)
Wind Gust16.1 mph (3:35 pm)
Weather ElementAverage
Visibility10 mi
Wind DirectionESE (120.3 °)

Weather ElementTotal
Precipitation---
Heating Degree Days46.3 (Base 65)
Averaged from 68 records on January 23, 2013
WEATHER CONDITIONS BREAKOUT
WIND DIRECTION BREAKOUT
WEATHER BY HOUR - JANUARY 23, 2013
[ °C ]   °F
Local TimeTemperatureDewpointHumidityBarometerVisibilityWind DirectionWind SpeedGust SpeedPrecipitationEventsConditions
12:35 AM17.6 °F8.6 °F68 %30.39 in10.0 miCalmOvercast
12:55 AM17.6 °F8.6 °F68 %30.40 in10.0 miNW (320°)3.5 mphOvercast
1:15 AM17.6 °F6.8 °F63 %30.39 in10.0 miNorth (360°)3.5 mphOvercast
1:35 AM17.6 °F6.8 °F63 %30.38 in10.0 miNorth (360°)3.5 mphOvercast
1:55 AM17.6 °F6.8 °F63 %30.38 in10.0 miNNE (20°)5.8 mphOvercast
2:15 AM17.6 °F5.0 °F58 %30.37 in10.0 miNorth (360°)3.5 mphOvercast
2:35 AM19.4 °F5.0 °F54 %30.38 in10.0 miCalmOvercast
2:55 AM17.6 °F3.2 °F53 %30.39 in10.0 miCalmOvercast
3:15 AM17.6 °F3.2 °F53 %30.39 in10.0 miCalmOvercast
3:35 AM17.6 °F3.2 °F53 %30.39 in10.0 miCalmScattered Clouds
3:55 AM17.6 °F3.2 °F53 %30.38 in10.0 miCalmClear
4:15 AM15.8 °F3.2 °F58 %30.37 in10.0 miSE (140°)3.5 mphClear
4:35 AM15.8 °F5.0 °F62 %30.37 in10.0 miCalmClear
4:55 AM15.8 °F5.0 °F62 %30.37 in10.0 miCalmClear
5:15 AM14.0 °F5.0 °F67 %30.36 in10.0 miSE (140°)3.5 mphClear
5:35 AM12.2 °F6.8 °F79 %30.36 in10.0 miSE (140°)3.5 mphClear
5:55 AM14.0 °F6.8 °F73 %30.35 in10.0 miESE (120°)4.6 mphClear
6:15 AM14.0 °F6.8 °F73 %30.35 in10.0 miESE (120°)5.8 mphScattered Clouds
6:35 AM15.8 °F8.6 °F73 %30.36 in10.0 miESE (120°)3.5 mphOvercast
6:55 AM15.8 °F6.8 °F68 %30.36 in10.0 miESE (120°)4.6 mphMostly Cloudy
7:15 AM15.8 °F8.6 °F73 %30.36 in10.0 miSE (130°)4.6 mphMostly Cloudy
7:35 AM15.8 °F6.8 °F68 %30.36 in10.0 miSSE (150°)4.6 mphScattered Clouds
7:55 AM15.8 °F6.8 °F68 %30.37 in10.0 miCalmMostly Cloudy
8:15 AM15.8 °F8.6 °F73 %30.36 in10.0 miESE (120°)4.6 mphPartly Cloudy
8:35 AM15.8 °F8.6 °F73 %30.36 in10.0 miESE (110°)4.6 mphClear
8:55 AM17.6 °F8.6 °F68 %30.36 in10.0 miESE (110°)4.6 mphClear
9:15 AM17.6 °F8.6 °F68 %30.37 in10.0 miSSE (160°)5.8 mphClear
9:35 AM19.4 °F8.6 °F63 %30.37 in10.0 miSSE (160°)5.8 mphClear
9:55 AM21.2 °F10.4 °F63 %30.36 in10.0 miSSE (160°)8.1 mphClear
10:15 AM21.2 °F10.4 °F63 %30.36 in10.0 miSSE (160°)8.1 mphClear
10:35 AM23.0 °F10.4 °F59 %30.35 in10.0 miSouth (170°)10.4 mphClear
10:55 AM24.8 °F10.4 °F54 %30.35 in10.0 miSouth (190°)9.2 mphClear
11:15 AM24.8 °F10.4 °F54 %30.34 in10.0 miSouth (190°)8.1 mphClear
11:55 AM26.6 °F10.4 °F51 %30.32 in10.0 miSSE (160°)8.1 mphClear
12:15 PM28.4 °F10.4 °F47 %30.31 in10.0 miSouth (180°)10.4 mphClear
12:35 PM28.4 °F8.6 °F43 %30.30 in10.0 miSouth (170°)8.1 mphClear
12:55 PM30.2 °F10.4 °F44 %30.27 in10.0 miSouth (170°)6.9 mphClear
1:15 PM30.2 °F10.4 °F44 %30.26 in10.0 miSSW (200°)8.1 mphClear
1:35 PM30.2 °F10.4 °F44 %30.24 in10.0 miSouth (170°)6.9 mphClear
1:55 PM32.0 °F10.4 °F41 %30.22 in10.0 miSSW (200°)6.9 mphClear
2:15 PM33.8 °F12.2 °F41 %30.21 in10.0 miSouth (190°)6.9 mphClear
2:35 PM33.8 °F14.0 °F44 %30.20 in10.0 miSSW (200°)10.4 mphClear
2:55 PM33.8 °F12.2 °F41 %30.20 in10.0 miSSW (210°)8.1 mphClear
3:15 PM35.6 °F15.8 °F44 %30.19 in10.0 miSW (230°)10.4 mphClear
3:35 PM35.6 °F15.8 °F44 %30.18 in10.0 miSW (220°)11.5 mph16.1 mphClear
3:55 PM35.6 °F15.8 °F44 %30.17 in10.0 miSSW (210°)12.7 mphClear
4:15 PM37.4 °F15.8 °F41 %30.17 in10.0 miSSW (210°)10.4 mphClear
4:35 PM35.6 °F15.8 °F44 %30.16 in10.0 miSW (220°)8.1 mphClear
4:55 PM35.6 °F17.6 °F48 %30.15 in10.0 miSW (220°)9.2 mphClear
5:15 PM35.6 °F17.6 °F48 %30.15 in10.0 miSSW (210°)9.2 mphClear
5:35 PM35.6 °F17.6 °F48 %30.14 in10.0 miSSW (210°)6.9 mphClear
5:55 PM33.8 °F17.6 °F52 %30.14 in10.0 miSW (230°)5.8 mphClear
6:15 PM33.8 °F17.6 °F52 %30.14 in10.0 miWSW (240°)4.6 mph
6:35 PM0.0 °F0.0 °FNorth
6:55 PM0.0 °F0.0 °FNorth
7:15 PM0.0 °F0.0 °FNorth
7:35 PM0.0 °F0.0 °FNorth
7:55 PM0.0 °F0.0 °FNorth
8:15 PM0.0 °F0.0 °FNorth
8:35 PM0.0 °F0.0 °FNorth
8:55 PM0.0 °F0.0 °FNorth
9:35 PM0.0 °F0.0 °FNorth
9:55 PM0.0 °F0.0 °FNorth
10:35 PM0.0 °F0.0 °FNorth
10:55 PM0.0 °F0.0 °FNorth
11:15 PM0.0 °F0.0 °FNorth
11:35 PM0.0 °F0.0 °FNorth
11:55 PM0.0 °F0.0 °FNorth
Hourly data recorded from KHNB, located miles away from Petersburg, Indiana







STORIES FROM OUR PARTNERS